Location: La Pernelle
(49.6188°N, 1.2999°W)
Time: 13:26:00
(UTC+00:00)

Cosmos 968 Rocket - Pass Details

Date: 12 June 2021
Orbit: 741 x 771 km, 74.0° (Epoch: 29 July)

Event Time Altitude Azimuth Distance (km) Brightness Sun altitude
Rises 23:23:51 0° 335° (NNW) 3,190 8.2 -16.6°
Reaches altitude 10° 23:26:13 10° 334° (NNW) 2,263 7.1 -16.7°
Maximum altitude 23:31:20 79° 249° (WSW) 763 3.4 -16.8°
Enters shadow 23:33:57 29° 167° (SSE) 1,333 4.2 -16.8°
